TimeCET,TemperatureF,Dew PointF,Humidity,Sea Level PressureIn,VisibilityMPH,Wind Direction,Wind SpeedMPH,Gust SpeedMPH,PrecipitationIn,Events,Conditions,WindDirDegrees,DateUTC
12:00 AM,32.0,32.0,100,30.30,6.2,Variable,1.2,-,N/A,,Mostly Cloudy,0,2012-12-28 23:00:00
1:00 AM,33.8,32.0,93,30.30,6.2,South,3.5,-,N/A,,Mostly Cloudy,180,2012-12-29 00:00:00
2:00 AM,33.8,32.0,93,30.27,6.2,South,3.5,-,N/A,,Mostly Cloudy,180,2012-12-29 01:00:00
3:00 AM,33.8,32.0,93,30.27,6.2,SSW,3.5,-,N/A,,Mostly Cloudy,210,2012-12-29 02:00:00
4:00 AM,35.6,32.0,87,30.27,6.2,Variable,3.5,-,N/A,,Mostly Cloudy,0,2012-12-29 03:00:00
5:00 AM,35.6,32.0,87,30.24,6.2,SE,3.5,-,N/A,,Mostly Cloudy,140,2012-12-29 04:00:00
6:00 AM,35.6,33.8,93,30.24,6.2,South,3.5,-,N/A,,Overcast,180,2012-12-29 05:00:00
7:00 AM,33.8,32.0,93,30.24,6.2,Variable,2.3,-,N/A,,Mostly Cloudy,0,2012-12-29 06:00:00
7:30 AM,33.8,32.0,93,30.24,6.2,Variable,2.3,-,N/A,,Mostly Cloudy,0,2012-12-29 06:30:00
8:00 AM,33.8,32.0,93,30.21,6.2,Variable,2.3,-,N/A,,Mostly Cloudy,0,2012-12-29 07:00:00
8:30 AM,33.8,32.0,93,30.24,6.2,Variable,2.3,-,N/A,,Mostly Cloudy,0,2012-12-29 07:30:00
9:00 AM,35.6,32.0,87,30.21,6.2,Variable,1.2,-,N/A,,Mostly Cloudy,0,2012-12-29 08:00:00
9:30 AM,35.6,32.0,87,30.21,6.2,Variable,2.3,-,N/A,,Mostly Cloudy,0,2012-12-29 08:30:00
10:00 AM,35.6,32.0,87,30.21,6.2,Variable,2.3,-,N/A,,Mostly Cloudy,0,2012-12-29 09:00:00
10:30 AM,39.2,33.8,81,30.21,6.2,Variable,2.3,-,N/A,,Scattered Clouds,0,2012-12-29 09:30:00
11:00 AM,39.2,33.8,81,30.21,6.2,East,3.5,-,N/A,,Mostly Cloudy,100,2012-12-29 10:00:00
11:30 AM,39.2,33.8,81,30.18,6.2,Variable,2.3,-,N/A,,Mostly Cloudy,0,2012-12-29 10:30:00
12:00 PM,41.0,32.0,70,30.18,6.2,South,4.6,-,N/A,,Partly Cloudy,190,2012-12-29 11:00:00
12:30 PM,42.8,30.2,61,30.15,-9999.0,Variable,5.8,-,N/A,,Clear,0,2012-12-29 11:30:00
1:00 PM,42.8,32.0,66,30.15,-9999.0,SE,4.6,-,N/A,,Clear,130,2012-12-29 12:00:00
1:30 PM,44.6,33.8,66,30.12,-9999.0,SE,3.5,-,N/A,,Clear,130,2012-12-29 12:30:00
2:00 PM,44.6,33.8,66,30.12,-9999.0,SE,4.6,-,N/A,,Clear,130,2012-12-29 13:00:00
2:30 PM,42.8,33.8,70,30.09,-9999.0,SE,6.9,-,N/A,,Clear,130,2012-12-29 13:30:00
3:00 PM,42.8,33.8,70,30.09,-9999.0,ESE,6.9,-,N/A,,Clear,110,2012-12-29 14:00:00
3:30 PM,39.2,32.0,75,30.09,-9999.0,ESE,5.8,-,N/A,,Clear,110,2012-12-29 14:30:00
4:00 PM,37.4,32.0,81,30.09,-9999.0,ESE,5.8,-,N/A,,Clear,120,2012-12-29 15:00:00
4:30 PM,35.6,32.0,87,30.09,-9999.0,ESE,6.9,-,N/A,,Clear,110,2012-12-29 15:30:00
5:00 PM,35.6,30.2,81,30.06,-9999.0,ESE,8.1,-,N/A,,Clear,110,2012-12-29 16:00:00
5:30 PM,33.8,30.2,87,30.06,-9999.0,ESE,9.2,-,N/A,,Clear,110,2012-12-29 16:30:00
6:00 PM,33.8,30.2,87,30.06,-9999.0,East,6.9,-,N/A,,Clear,100,2012-12-29 17:00:00
6:30 PM,33.8,30.2,87,30.04,-9999.0,ESE,6.9,-,N/A,,Clear,110,2012-12-29 17:30:00
7:00 PM,30.2,28.4,93,30.04,-9999.0,ESE,6.9,-,N/A,,Clear,110,2012-12-29 18:00:00
7:30 PM,28.4,26.6,93,30.04,-9999.0,Variable,4.6,-,N/A,,Clear,0,2012-12-29 18:30:00
7:48 PM,26.6,26.6,100,30.04,0.6,Variable,2.3,-,N/A,Fog,Light Freezing Fog,0,2012-12-29 18:48:00
8:00 PM,26.6,26.6,100,30.04,0.2,Variable,2.3,-,N/A,Fog,Light Freezing Fog,0,2012-12-29 19:00:00
8:43 PM,26.6,26.6,100,30.01,1.9,East,2.3,-,N/A,,Scattered Clouds,90,2012-12-29 19:43:00
9:00 PM,26.6,26.6,100,30.01,0.5,Variable,1.2,-,N/A,Fog,Light Freezing Fog,0,2012-12-29 20:00:00
10:00 PM,28.4,26.6,93,30.01,0.2,Variable,1.2,-,N/A,Fog,Light Freezing Fog,0,2012-12-29 21:00:00
11:00 PM,28.4,26.6,93,30.01,0.7,East,3.5,-,N/A,,Mostly Cloudy,100,2012-12-29 22:00:00